Change the Weather History Date:

Wednesday, February 15, 2012

  Actual Average Record
Temperature  
Mean Temperature 40 °F -  
Max Temperature 46 °F 48 °F 60 °F (1997)
Min Temperature 35 °F 37 °F 13 °F (1956)
Degree Days  
Heating Degree Days 24    
Moisture  
Dew Point 36 °F    
Average Humidity 87    
Maximum Humidity 100    
Minimum Humidity 68    
Precipitation  
Precipitation 0.00 in - - ()
Sea Level Pressure  
Sea Level Pressure 30.33 in    
Wind  
Wind Speed 4 mph (SE)    
Max Wind Speed 7 mph    
Max Gust Speed -    
Visibility 9 miles    
Events      
Averages and records for this station are not official NWS values.
T = Trace of Precipitation, MM = Missing Value Source: NWS Daily Summary

Daily Weather History Graph

Daily Weather History Graph

Search for Another Location

Airport or City:

Trip Planner

Search our weather history database for the weather conditions in past years. The results will help you decide how hot, cold, wet, or windy it might be!

Date:

Astronomy

Feb. 15, 2012 Rise Set
Actual Time 7:15 AM PST 5:32 PM PST
Civil Twilight 6:43 AM PST 6:03 PM PST
Nautical Twilight 6:07 AM PST 6:39 PM PST
Astronomical Twilight 5:32 AM PST 7:15 PM PST
Moon 2:27 AM PST (2/15) 11:18 AM PST (2/15)
Length of Visible Light 11h 20m
Length of Day
10h 16m
Last Quarter, 38% of the Moon is Illuminated
Feb 15
Last Quarter
Feb 21
New
Feb 29
First Quarter
Mar 8
Full
Mar 14
Last Quarter

Hourly Weather History & Observations

Time (PST) Temp. Windchill Dew Point Humidity Pressure Visibility Wind Dir Wind Speed Gust Speed Precip Events Conditions
12:17 AM 35.6 °F 30.7 °F 35.6 °F 100% 30.21 in 7.0 mi ESE 5.8 mph - N/A   Mostly Cloudy
12:53 AM 35.1 °F - 34.0 °F 96% 30.24 in 6.0 mi Calm Calm - N/A   Scattered Clouds
1:17 AM 35.6 °F - 35.6 °F 100% 30.26 in 7.0 mi Calm Calm - N/A   Mostly Cloudy
1:53 AM 35.1 °F 30.1 °F 34.0 °F 96% 30.25 in 7.0 mi SE 5.8 mph - N/A   Overcast
2:53 AM 35.1 °F 31.0 °F 34.0 °F 96% 30.27 in 8.0 mi SE 4.6 mph - N/A   Overcast
3:34 AM 35.6 °F - 33.8 °F 93% 30.27 in 10.0 mi Calm Calm - N/A   Mostly Cloudy
3:53 AM 35.6 °F - 33.8 °F 93% 30.28 in 10.0 mi Calm Calm - N/A   Mostly Cloudy
4:00 AM 35.6 °F - 35.6 °F 100% 30.28 in 10.0 mi Calm Calm - N/A   Mostly Cloudy
4:53 AM 36.0 °F 31.1 °F 34.0 °F 93% 30.29 in 10.0 mi SE 5.8 mph - N/A   Mostly Cloudy
5:00 AM 35.6 °F 30.7 °F 35.6 °F 100% 30.29 in 10.0 mi SE 5.8 mph - N/A   Overcast
5:53 AM 37.0 °F 32.4 °F 36.0 °F 96% 30.31 in 10.0 mi ESE 5.8 mph - N/A   Overcast
6:53 AM 37.9 °F 35.5 °F 36.0 °F 93% 30.33 in 10.0 mi SSE 3.5 mph - N/A   Overcast
7:53 AM 39.0 °F 36.8 °F 36.0 °F 89% 30.35 in 5.0 mi ESE 3.5 mph - N/A   Overcast
8:53 AM 39.0 °F 35.7 °F 37.0 °F 93% 30.38 in 7.0 mi ESE 4.6 mph - N/A   Mostly Cloudy
9:22 AM 39.2 °F 35.9 °F 37.4 °F 93% 30.40 in 7.0 mi SSE 4.6 mph - N/A   Overcast
9:53 AM 39.9 °F 36.7 °F 37.0 °F 89% 30.40 in 6.0 mi South 4.6 mph - N/A   Overcast
10:53 AM 43.0 °F 38.8 °F 39.0 °F 86% 30.40 in 10.0 mi South 6.9 mph - N/A   Overcast
11:53 AM 43.0 °F 38.8 °F 36.0 °F 76% 30.40 in 10.0 mi South 6.9 mph - N/A   Scattered Clouds
12:53 PM 44.1 °F 40.8 °F 36.0 °F 73% 30.38 in 10.0 mi South 5.8 mph - N/A   Scattered Clouds
1:00 PM 44.6 °F 41.4 °F 37.4 °F 76% 30.38 in 10.0 mi South 5.8 mph - N/A   Mostly Cloudy
1:53 PM 44.1 °F 41.5 °F 36.0 °F 73% 30.38 in 10.0 mi Variable 4.6 mph - N/A   Mostly Cloudy
2:53 PM 45.0 °F - 35.1 °F 68% 30.36 in 10.0 mi Calm Calm - N/A   Mostly Cloudy
3:35 PM 44.6 °F 41.4 °F 37.4 °F 76% 30.35 in 10.0 mi Variable 5.8 mph - N/A   Mostly Cloudy
3:53 PM 46.0 °F 44.8 °F 36.0 °F 68% 30.34 in 10.0 mi NW 3.5 mph - N/A   Mostly Cloudy
4:53 PM 43.0 °F 40.3 °F 36.0 °F 76% 30.34 in 10.0 mi Variable 4.6 mph - N/A   Partly Cloudy
5:53 PM 42.1 °F - 36.0 °F 79% 30.34 in 10.0 mi Calm Calm - N/A   Clear
6:53 PM 42.1 °F - 35.1 °F 76% 30.36 in 10.0 mi Calm Calm - N/A   Clear
7:53 PM 39.9 °F 37.8 °F 34.0 °F 79% 30.36 in 10.0 mi East 3.5 mph - N/A   Partly Cloudy
8:53 PM 37.9 °F - 34.0 °F 86% 30.37 in 10.0 mi Calm Calm - N/A   Clear
9:53 PM 39.0 °F 34.0 °F 35.1 °F 86% 30.34 in 10.0 mi ESE 6.9 mph - N/A   Clear
10:53 PM 37.0 °F 33.3 °F 34.0 °F 89% 30.34 in 10.0 mi SSE 4.6 mph - N/A   Clear
11:53 PM 37.4 °F 32.8 °F 35.6 °F 93% 30.32 in 10.0 mi SSE 5.8 mph - N/A   Clear